Cloud_Cover
0 0 3 0 0 4 32 1 0 0 1 6 38 0 2 1 42 5 99 4 4 1 4 90 55 0 1 4 1 0 0 0 5 15 71 5 100 86 96 50 70 5 0 0
0 0 0 0 0 0 0 0 0 0 0 4 94 29 0 0 4 82 5 4 0 0 0 5 5 0 0 0 0 0 1 39 53 37 5 21 22 5 4 0 0 0 0 0
2 0 4 0 0 0 0 0 0 0 0 1 89 9 0 0 2 2 4 1 0 0 0 0 0 0 0 0 0 0 5 22 53 95 10 2 2 2 0 0 0 0 0 0
0 0 0 0 0 0 0 0 0 0 0 0 2 1 0 0 0 0 0 0 0 0 0 0 0 0 0 0 0 5 9 96 92 75 5 0 0 0 0 0 25 94 95 86
0 0 0 0 0 0 0 5 0 0 0 4 0 0 0 0 0 0 0 0 0 0 0 1 0 0 0 0 4 6 98 96 73 45 1 0 0 0 0 0 0 0 0 0
0 0 13 0 0 0 0 0 0 0 0 37 0 0 0 1 0 0 0 0 5 3 2 2 0 1 0 5 24 100 95 74 72 5 0 0 0 0 0 0 1 4 0 0
17 1 0 0 0 0 0 0 0 0 0 0 8 0 2 3 0 0 0 0 0 6 7 0 0 0 14 99 100 100 88 86 5 0 0 0 0 0 0 2 5 0 1 0
98 31 0 0 0 0 0 0 0 0 0 0 0 0 0 0 0 0 0 0 0 5 1 0 0 5 98 100 100 100 62 5 0 0 0 0 0 8 0 92 0 4 0 3
96 42 7 0 0 9 1 4 0 0 0 0 0 0 0 1 0 0 0 0 0 0 0 5 9 70 100 100 100 5 5 1 0 0 0 0 0 24 16 51 2 0 0 0
4 8 42 0 0 0 30 1 1 0 0 0 0 2 22 59 0 0 0 0 1 3 12 5 100 100 100 95 7 5 0 0 0 0 0 0 68 2 15 97 35 0 2 65
7 74 39 4 4 0 2 16 0 0 0 0 0 1 98 36 3 1 0 0 0 72 100 100 100 100 90 18 5 0 0 0 0 0 0 6 74 0 100 86 85 1 4 100
99 49 13 5 4 0 28 5 4 0 0 1 0 0 100 3 4 0 0 1 5 100 100 100 60 68 100 5 0 0 0 0 0 0 0 77 18 3 100 59 100 1 31 39
89 34 35 100 76 7 13 20 5 2 90 4 5 24 65 1 0 0 53 56 36 100 100 100 100 100 75 4 0 0 0 0 0 16 21 100 3 65 97 49 96 90 16 100
50 65 75 97 100 97 100 79 7 98 0 3 0 99 53 4 1 14 45 14 61 100 100 100 100 75 6 0 0 0 0 0 0 82 11 80 0 62 45 69 27 94 85 87
100 82 94 100 100 100 95 100 98 100 2 23 18 100 99 80 3 5 2 93 100 100 100 100 87 100 4 0 0 0 0 0 0 88 3 80 0 60 21 76 58 24 98 96
100 100 95 100 100 100 100 10 15 100 51 6 66 97 100 88 5 0 5 26 97 100 100 100 100 83 0 0 0 0 0 0 0 0 25 68 97 88 80 31 11 5 40 99
100 93 100 100 100 100 100 0 5 1 98 4 100 100 100 51 100 5 62 13 99 100 100 100 100 12 0 0 0 0 0 0 0 19 92 44 66 26 85 37 27 8 21 98
100 100 100 100 100 100 14 7 42 52 100 33 100 100 100 16 62 87 40 91 100 100 100 100 100 1 0 0 0 0 0 0 0 71 83 68 51 17 100 100 28 100 89 73
100 100 100 100 100 96 100 100 100 92 100 100 100 100 100 69 9 80 100 98 100 100 100 100 61 0 0 0 0 0 0 0 0 48 86 9 95 55 18 90 25 100 100 100
100 100 100 100 100 100 100 92 100 100 100 68 100 100 96 5 32 68 100 100 100 100 100 100 9 0 5 0 0 0 0 0 0 7 61 26 41 49 98 16 19 83 100 78
100 100 100 100 100 100 100 100 92 100 98 100 93 45 38 100 63 100 94 100 100 100 100 100 6 2 4 0 0 0 0 0 0 0 76 42 62 63 86 5 65 100 54 20
100 100 100 100 100 100 100 100 100 100 99 100 36 5 100 22 4 99 100 100 100 100 100 100 5 5 5 0 0 0 0 0 0 0 65 0 0 18 12 0 36 100 70 5
100 100 100 100 100 100 100 100 100 100 100 19 1 48 21 0 41 100 100 100 100 100 100 93 5 5 4 0 0 0 0 0 0 0 34 0 0 80 0 0 2 9 100 66
100 100 100 100 100 100 100 100 100 88 99 60 8 5 0 1 66 100 100 100 100 100 100 60 5 5 5 4 0 0 0 0 0 0 0 0 0 0 0 0 2 1 0 2
100 100 100 100 100 100 100 100 100 100 44 100 83 49 0 4 47 100 100 100 100 100 100 38 5 11 79 5 0 0 0 0 0 0 0 0 0 0 0 0 0 4 25 100
100 100 100 100 100 100 100 100 100 100 100 100 42 55 40 13 91 100 100 100 100 100 100 16 5 5 83 9 0 0 0 0 0 0 0 0 0 0 0 0 0 70 0 20